Location: Be Tobo
(6.6442°N, 10.6239°W)
Time: 01:28:42
(UTC+00:00)

ARIANE 44P R/B - Pass Details

Date: 18 September 2020
Orbit: 351 x 35425 km, 7.3° (Epoch: 20 October)

Event Time Altitude Azimuth Distance (km) Brightness Sun altitude
Rises 20:04:48 0° 252° (WSW) 2,209 6.6 -21.8°
Reaches altitude 10° 20:06:18 10° 237° (WSW) 1,562 5.3 -22.1°
Maximum altitude 20:08:59 30° 171° (S) 1,254 4.0 -22.8°
Enters shadow 20:09:28 29° 159° (SSE) 1,365 4.0 -22.9°
